Theta_e
330 329 329 329 330 331 331 331 331 331 331 330 328 326 327 327 326 324 323 322 321 319 320 319 316 315 314 311 312 310 308 308 307 306 304 303 304 305 315 313 312 312 313 312 313 314 315 315 317 318 320 325 329 333 334 334 334 332 328 329 328 327 326 327 325 324 324 324 322 321 321 322 321 320 321 322 323 324 323 321 321 322 322 322 324
328 328 326 325 326 326 326 327 327 328 329 328 327 327 325 324 323 322 321 320 320 318 319 319 319 316 315 314 313 313 311 310 309 308 307 305 303 303 313 313 312 312 313 312 314 314 314 315 316 317 319 320 322 327 331 334 334 333 332 329 328 328 327 326 327 326 325 325 324 322 321 321 321 320 320 320 321 322 322 321 320 321 321 321 321
327 325 324 324 323 323 322 323 324 325 326 326 326 325 323 322 321 320 319 319 318 318 317 316 318 320 316 314 313 312 311 311 310 309 308 307 308 305 304 312 313 313 312 313 313 313 314 314 315 317 317 319 321 323 325 329 332 332 332 332 331 331 331 330 327 326 328 327 325 324 322 322 321 320 319 319 319 320 321 321 320 319 319 320 321
323 323 321 321 321 320 320 320 320 322 323 323 324 324 322 321 321 319 317 318 317 316 315 315 315 316 315 315 314 313 312 311 310 310 309 309 308 309 307 304 310 314 314 313 313 313 313 314 315 315 318 319 320 321 322 323 325 329 331 332 332 332 331 332 332 328 327 329 327 325 323 322 322 321 320 320 319 319 319 320 320 320 319 319 319
321 320 319 319 318 318 318 318 319 320 321 320 320 320 319 319 319 318 317 316 315 316 315 313 314 315 316 313 312 313 312 311 310 310 310 309 310 308 308 307 307 310 312 313 314 314 313 314 313 315 316 318 320 321 321 321 321 322 325 327 329 330 331 331 331 330 329 330 328 326 324 323 322 322 321 321 320 320 319 319 319 319 320 319 318
318 318 318 318 318 317 316 316 316 318 319 319 317 316 315 315 316 315 313 314 313 314 314 315 314 315 315 315 313 313 311 311 311 311 311 310 309 309 307 307 305 304 306 311 314 314 313 313 312 312 313 313 314 316 318 320 320 321 322 322 324 325 326 328 330 330 331 330 329 327 326 324 323 322 321 321 320 320 319 320 319 319 319 320 319
311 312 312 313 312 311 311 313 314 314 314 314 314 313 312 311 310 311 312 312 312 312 313 312 312 312 312 312 313 314 313 313 312 311 311 310 309 308 307 305 304 303 303 300 304 310 313 312 312 312 312 312 314 314 315 316 317 319 321 322 323 323 323 324 327 330 329 329 328 328 327 325 324 323 322 321 320 320 319 319 319 319 319 319 319
310 309 308 308 307 307 307 308 309 309 309 309 310 310 311 308 306 306 307 309 307 307 308 307 307 308 309 309 310 311 312 312 313 313 311 309 309 307 306 304 303 302 303 301 301 305 310 312 312 312 312 313 313 314 316 317 317 317 318 319 320 322 322 322 322 325 327 327 327 327 328 327 325 323 322 321 321 320 320 319 319 319 319 318 319
308 308 307 306 305 305 306 307 307 306 306 306 307 307 307 309 306 305 305 304 304 303 303 303 304 306 306 306 307 308 309 311 312 309 310 307 304 302 302 302 301 303 300 300 301 301 305 309 311 312 312 313 313 314 314 315 315 315 316 317 317 318 319 319 320 320 321 322 324 325 326 327 325 324 323 322 321 321 320 319 318 318 318 319 319
304 305 304 304 303 304 304 305 304 303 303 302 302 303 305 305 305 304 303 301 300 300 300 300 302 304 305 304 305 305 306 308 307 305 304 303 302 301 301 300 300 300 300 300 300 300 301 303 307 308 307 311 312 312 313 314 314 315 316 316 316 317 317 317 318 318 319 320 320 321 322 324 325 324 323 323 322 322 322 321 319 319 319 319 319
301 302 302 302 301 301 301 301 301 300 300 300 299 300 300 301 303 303 302 300 298 299 298 298 300 302 303 305 304 305 305 304 304 301 300 301 302 302 302 300 300 300 300 299 299 300 300 300 299 300 300 307 310 310 311 312 312 313 316 317 316 316 316 315 316 317 317 318 319 320 320 321 323 325 324 324 323 323 321 320 319 319 319 319 319
297 299 299 299 298 298 298 298 298 298 297 296 297 297 297 298 298 301 300 298 298 298 297 297 298 297 297 299 302 304 304 302 301 301 302 302 301 300 300 299 300 300 301 301 301 300 300 299 299 299 300 303 308 309 310 309 310 311 313 314 316 316 316 315 315 315 315 316 316 317 318 320 321 322 323 325 325 324 322 321 321 320 320 319 319
295 295 295 296 295 295 294 294 294 293 293 293 294 294 295 295 296 298 298 296 296 297 296 296 295 295 297 298 302 303 301 299 297 298 300 300 299 300 299 299 300 299 299 299 299 299 300 299 299 300 300 298 300 304 307 308 309 309 311 312 314 315 316 316 315 315 315 315 315 315 316 317 318 319 320 321 323 325 326 326 323 322 321 320 320
294 294 293 293 292 292 292 292 292 291 291 292 292 292 292 292 293 294 297 296 295 296 295 294 292 291 291 294 298 300 299 297 296 297 299 299 300 300 300 300 298 297 297 297 298 298 299 298 298 298 299 299 299 299 300 300 301 308 309 311 312 313 314 315 315 315 315 315 315 316 316 316 317 318 319 320 321 322 323 325 324 323 323 321 320
292 293 293 292 292 291 291 291 291 291 290 290 290 290 291 290 290 290 291 293 293 294 293 293 290 291 292 291 291 293 298 294 295 296 295 299 297 298 299 299 297 295 295 296 297 297 297 294 294 295 297 298 298 299 299 299 299 303 307 307 308 311 313 314 315 315 315 315 316 316 317 317 317 317 317 318 319 320 321 322 325 325 325 323 323
292 292 292 291 291 291 290 290 290 291 290 289 289 289 290 290 289 289 289 288 288 288 291 291 289 290 287 289 290 290 286 288 291 293 294 296 294 295 296 297 294 293 293 294 294 294 292 290 290 292 294 296 297 297 298 297 300 300 300 301 304 307 309 311 313 312 313 313 312 313 314 316 317 318 318 318 318 319 319 320 321 322 324 324 324
291 291 291 290 290 290 290 289 289 289 289 289 288 288 288 289 289 288 287 287 287 286 288 289 289 290 289 287 286 285 285 287 289 289 292 293 291 292 294 293 292 291 292 293 290 292 290 289 289 290 292 293 295 296 296 297 297 298 297 297 300 304 306 310 310 310 311 311 311 311 312 313 313 314 316 318 318 318 319 319 320 321 321 323 324
289 289 290 289 289 289 289 288 288 288 289 288 288 288 288 287 288 288 287 288 287 286 285 288 288 289 288 287 288 286 282 285 286 283 289 289 288 289 291 289 289 290 290 291 289 290 290 289 289 289 290 292 293 295 296 295 296 296 297 301 304 304 304 306 307 307 308 309 309 310 310 311 311 312 314 315 317 318 319 319 319 319 320 321 322
288 288 288 288 288 288 287 287 287 287 288 287 287 287 287 287 288 287 287 288 287 284 284 285 285 286 287 287 287 286 285 284 281 283 279 283 285 286 287 287 287 287 289 290 289 289 289 288 288 288 289 290 292 293 295 296 298 300 304 304 304 303 303 302 303 305 307 307 307 307 308 309 310 311 311 312 313 314 317 317 318 318 319 320 321
288 288 288 288 287 287 287 286 286 286 287 286 286 286 287 287 287 286 286 286 286 284 283 284 283 284 286 285 285 285 284 284 284 282 280 278 280 284 285 285 285 285 287 286 287 289 289 288 288 288 288 289 291 291 293 294 294 294 295 302 303 303 302 301 301 301 303 305 307 307 307 307 309 310 310 311 311 312 313 315 317 318 319 319 320
288 287 287 287 287 286 286 285 285 285 286 286 286 286 285 285 285 285 284 285 285 285 283 283 283 283 283 283 283 283 282 282 283 283 279 278 277 279 280 283 282 283 285 285 287 288 287 287 288 289 289 289 290 290 291 291 291 293 298 300 302 303 303 302 300 300 299 300 303 305 306 307 308 308 310 311 311 311 312 312 313 315 317 318 319
286 286 286 286 286 286 285 285 284 285 285 284 285 285 285 284 285 284 284 283 284 284 284 283 283 283 282 283 282 281 280 280 280 280 279 280 278 278 279 280 279 281 283 283 284 285 285 286 287 288 288 288 289 289 290 290 290 294 294 298 300 301 301 300 300 299 298 298 300 302 305 306 307 308 307 308 310 311 311 311 312 313 314 316 318
285 285 285 285 285 285 284 284 284 285 284 284 283 284 284 284 284 284 283 283 283 283 284 283 283 282 282 281 281 281 281 279 279 280 279 277 277 277 278 279 280 280 281 283 284 284 285 285 287 288 288 288 289 290 290 289 291 293 295 297 298 299 299 300 300 299 299 298 298 300 302 303 304 305 305 306 307 309 311 312 312 312 312 313 315
284 284 284 284 284 284 284 283 283 283 283 284 284 283 284 283 283 283 283 282 283 283 282 282 282 282 281 282 281 282 282 281 282 282 280 279 279 277 278 279 279 279 282 282 283 283 283 284 285 288 288 288 289 290 290 290 289 293 292 293 296 298 299 299 299 298 297 297 298 299 300 301 303 303 303 304 305 307 308 310 311 312 312 313 313
283 283 283 283 283 283 283 282 282 283 282 283 283 283 283 282 283 282 282 281 281 282 281 281 282 281 280 282 282 282 281 282 282 281 281 280 279 277 278 278 277 278 279 280 279 281 283 283 284 286 288 288 290 291 291 290 287 290 293 291 294 295 295 295 296 296 296 297 298 299 299 299 301 302 304 304 304 305 306 307 307 309 312 313 313
283 282 283 283 283 283 283 282 282 282 282 282 282 282 282 281 281 281 281 281 281 281 281 280 281 280 281 280 280 280 280 282 281 281 280 279 277 277 277 277 277 277 279 278 279 279 279 282 283 284 285 286 288 289 289 288 287 291 293 290 289 292 293 294 295 295 296 297 298 298 298 298 299 300 301 304 305 304 304 305 306 307 307 310 313
282 283 283 282 283 282 282 282 282 282 281 281 282 281 281 281 281 281 281 281 280 280 280 279 281 279 279 279 280 279 279 280 280 281 281 280 279 278 277 275 276 276 276 278 277 277 279 280 283 283 284 284 284 285 285 285 288 290 290 287 285 290 292 293 295 295 295 296 296 296 297 297 297 299 299 300 302 303 305 304 304 305 305 306 306
283 282 283 282 282 282 281 281 281 281 281 280 280 280 280 279 279 279 278 282 279 279 279 278 278 278 278 279 278 278 279 279 280 280 279 280 280 278 278 276 275 273 276 275 275 276 279 279 280 282 282 283 284 284 286 286 285 289 288 286 286 286 290 292 294 295 295 295 295 295 296 296 297 297 298 298 298 299 301 302 302 302 302 302 303
284 283 282 281 281 281 280 280 280 280 279 279 279 278 279 278 278 278 278 278 278 278 278 278 278 278 277 277 278 278 278 278 278 279 279 279 279 278 278 277 277 274 273 273 274 275 277 279 278 279 282 282 283 284 284 284 286 287 285 285 285 285 288 291 293 294 294 294 294 294 294 294 295 296 296 297 298 298 299 299 300 301 301 302 303
283 283 281 280 280 281 279 279 278 278 278 278 278 277 278 278 277 277 277 277 277 278 278 277 277 277 278 277 277 278 278 277 278 278 278 278 277 278 278 278 277 275 274 273 274 276 276 278 278 279 281 281 282 283 283 283 286 286 284 284 284 284 289 290 290 291 292 294 293 293 294 294 294 295 295 295 296 297 298 298 299 299 301 302 302
281 280 279 278 278 278 277 277 277 277 277 277 277 277 277 276 277 277 276 276 276 276 277 277 277 277 276 276 276 276 277 277 277 277 277 278 277 277 276 278 277 276 275 275 273 276 278 276 278 279 279 280 281 281 282 282 284 285 283 282 283 286 287 286 287 288 290 291 291 292 293 294 294 294 294 295 296 296 297 298 298 299 299 300 302
279 278 278 277 277 277 277 277 276 276 276 276 276 276 275 275 275 276 276 275 275 274 275 276 278 277 275 275 275 276 276 275 276 276 276 276 277 277 277 277 276 276 276 275 274 273 277 276 277 277 278 279 279 279 279 280 282 283 281 281 282 285 282 282 285 287 288 289 290 292 292 293 293 293 294 295 296 297 297 297 298 298 298 299 301
278 277 277 276 276 276 276 276 276 276 275 275 275 275 275 274 274 275 275 275 274 274 274 274 275 275 275 274 274 275 275 274 275 275 275 275 275 276 276 275 275 275 275 273 272 272 275 277 276 276 277 278 277 278 277 278 278 279 281 280 280 280 281 281 282 284 285 287 288 289 291 292 293 294 294 294 295 295 296 296 297 297 297 298 299
277 277 276 276 276 276 276 275 275 275 275 275 274 274 274 274 273 276 276 273 273 273 273 273 273 276 274 273 274 274 275 274 274 274 274 274 274 274 274 274 273 274 274 273 273 272 272 275 275 276 275 277 275 277 275 276 276 277 277 278 279 279 279 280 280 281 285 286 288 290 291 292 293 294 294 293 294 295 296 296 295 295 295 296 296
276 276 275 275 276 275 275 275 274 275 275 274 274 274 273 273 272 272 274 273 273 273 273 273 273 273 273 273 273 273 275 273 273 273 274 273 273 273 273 273 273 273 274 274 273 272 272 272 274 273 274 274 274 274 275 276 276 276 276 276 277 278 279 279 280 281 284 286 287 288 289 290 291 291 292 292 292 293 293 294 294 294 295 295 296
276 275 275 275 275 274 274 274 274 273 273 273 273 273 273 273 272 272 272 272 273 273 273 272 272 273 272 272 272 272 273 272 272 272 273 272 272 272 272 272 272 272 273 273 273 272 271 270 272 272 273 272 273 274 275 275 275 275 276 276 277 277 277 279 279 278 281 284 285 286 286 287 287 287 288 290 291 291 292 292 292 293 293 293 293
275 274 275 274 274 274 274 273 273 273 273 273 273 272 272 272 272 272 272 273 273 273 273 273 275 272 272 272 272 272 272 272 272 272 272 271 271 271 271 272 272 272 272 272 272 272 271 270 270 272 272 272 273 273 274 273 274 274 275 274 275 275 276 277 277 278 280 282 282 283 283 284 284 285 286 287 288 289 290 291 292 292 292 292 293
273 273 272 273 273 272 272 272 272 272 272 272 272 271 271 272 272 272 273 273 273 273 272 273 273 272 272 272 272 272 272 272 272 271 271 271 271 271 271 271 271 272 271 271 272 271 271 270 270 270 271 271 272 272 273 273 272 272 272 273 274 275 274 274 275 277 278 278 277 278 280 281 283 285 286 286 287 288 288 289 289 289 288 289 288
272 272 272 272 273 271 272 272 271 271 272 271 271 271 271 272 272 273 273 272 273 272 273 273 273 273 272 272 272 272 272 272 271 271 271 271 271 271 271 271 271 271 271 271 271 271 271 270 270 270 270 272 272 270 272 273 273 272 271 271 271 273 274 274 274 275 276 276 278 280 281 281 282 282 283 285 285 285 286 286 287 287 286 286 287
272 272 271 272 271 271 271 271 271 271 271 271 271 270 271 272 272 272 272 272 272 272 272 273 272 272 273 272 272 272 272 272 271 272 272 271 272 271 272 272 272 272 271 271 271 270 270 269 269 269 270 270 271 272 273 273 271 271 272 271 270 271 272 274 274 274 275 275 275 276 279 279 280 281 282 282 283 283 284 284 284 284 284 286 287
273 271 271 271 271 271 271 271 271 271 271 271 271 270 270 272 273 273 273 272 272 272 272 272 272 272 272 273 272 272 274 276 277 276 276 276 273 270 271 273 272 272 271 271 270 270 269 269 268 270 269 270 270 270 270 271 270 270 272 272 271 272 273 273 274 275 275 274 275 275 276 277 278 278 278 277 278 280 280 282 282 283 284 286 287
270 270 270 270 270 270 270 270 270 271 271 271 273 274 275 274 273 274 274 273 272 272 271 271 271 272 272 272 273 276 276 275 275 276 276 276 276 275 274 273 273 272 271 270 270 270 269 269 269 269 269 269 270 271 271 272 273 273 272 272 271 272 273 273 274 275 276 275 275 275 276 278 277 277 277 276 277 279 278 279 279 282 284 287 288
269 269 269 270 269 270 270 269 269 270 270 271 274 275 276 276 275 274 273 273 273 273 272 271 270 271 271 272 271 272 273 273 273 274 275 275 276 276 276 276 276 274 272 271 271 271 270 269 270 270 270 270 271 272 272 272 273 272 272 272 272 272 271 270 269 273 277 276 275 275 275 277 276 275 275 276 277 277 278 279 283 285 285 286 287
268 267 268 269 269 269 269 269 268 269 269 274 275 275 276 276 276 275 274 273 273 273 273 272 272 271 270 270 270 271 271 271 272 271 272 274 275 275 276 276 276 276 276 274 272 271 271 270 270 270 271 270 271 272 272 273 272 273 273 273 272 272 271 271 271 271 275 277 275 274 273 275 276 275 274 275 276 277 278 281 283 284 284 285 286
267 267 269 269 268 268 268 268 267 267 268 273 275 275 275 276 276 276 274 273 272 272 273 273 272 271 270 269 269 270 270 273 272 270 270 270 273 275 275 276 276 276 277 277 278 275 274 272 271 271 271 271 271 272 273 273 274 272 273 272 273 273 273 272 272 273 275 278 275 273 271 274 274 274 273 275 276 276 277 280 282 283 284 285 285
268 267 266 267 267 267 267 267 266 267 267 271 274 275 275 276 276 276 274 273 273 272 272 272 271 270 269 269 269 269 269 269 270 270 270 270 271 272 272 272 273 274 276 277 278 278 277 274 273 272 273 274 272 273 274 275 273 272 272 272 273 273 273 273 275 275 277 277 274 272 271 272 274 273 272 274 275 276 276 279 282 283 284 284 285
267 267 267 266 266 265 264 265 265 265 266 272 274 275 275 276 276 276 274 273 272 272 272 271 270 269 269 270 269 269 269 269 270 272 272 272 273 273 273 273 273 274 274 274 274 274 274 274 274 274 274 275 274 275 275 275 275 275 275 274 274 274 275 276 275 275 274 275 275 273 269 272 274 273 273 274 275 275 275 279 281 282 283 283 284
266 266 266 266 266 265 264 263 263 264 265 272 273 274 275 275 275 273 272 271 271 270 269 270 270 270 270 270 269 269 269 270 272 275 275 275 274 274 273 274 274 275 275 277 279 279 278 277 277 276 276 277 279 278 279 278 278 278 278 277 276 275 273 271 270 272 272 275 275 273 271 271 274 272 273 274 275 274 275 275 279 281 282 283 284
267 266 265 265 264 264 263 263 263 263 263 268 272 274 274 275 274 271 270 270 270 269 270 270 271 271 270 270 270 271 271 271 274 276 277 278 275 275 274 273 274 274 275 276 279 279 279 279 279 280 280 281 281 281 281 281 278 277 275 272 271 273 271 270 271 272 271 273 274 274 272 271 273 273 272 274 273 274 274 274 275 279 281 282 282
267 265 264 263 262 263 263 263 263 261 262 266 271 273 274 274 273 271 270 269 269 269 269 270 270 270 270 273 273 272 272 272 275 277 279 277 275 274 273 273 273 273 273 274 274 274 277 278 278 278 279 279 279 279 278 278 278 277 272 270 272 272 271 271 269 270 271 272 273 275 272 271 273 273 271 272 273 273 273 274 275 276 278 278 280
265 264 264 263 261 261 262 262 266 264 262 265 270 272 274 274 273 271 270 269 268 269 269 269 271 271 271 273 274 274 274 275 278 278 278 277 274 274 273 272 271 270 271 272 272 272 273 273 272 272 272 273 272 271 272 276 277 276 273 272 272 271 270 270 270 270 269 270 273 275 271 271 271 272 271 270 269 272 274 273 273 273 274 274 275
Wind_Speed
6 6 6 6 5 5 5 4 4 2 1 1 2 2 5 6 6 6 6 5 5 5 4 3 2 3 3 2 1 1 0 1 1 1 2 1 3 2 2 2 1 2 3 3 4 5 7 7 9 9 10 10 11 12 12 13 14 12 10 8 8 8 7 7 6 7 7 6 5 3 3 3 2 2 3 6 7 10 9 6 5 6 7 7 6
6 6 7 7 7 7 7 6 7 6 6 6 6 6 5 5 5 5 5 5 5 5 5 4 4 2 3 2 2 3 1 1 0 0 2 3 1 3 4 3 3 3 3 4 4 4 5 7 7 8 8 9 9 10 11 13 14 15 15 7 7 9 10 5 7 7 8 8 7 5 4 4 3 2 2 3 4 7 7 7 5 7 8 8 7
6 6 6 7 7 7 7 6 7 6 6 6 6 6 5 5 4 5 5 5 4 3 2 2 2 1 3 2 0 1 1 1 1 0 2 3 3 1 3 3 3 3 4 5 4 4 5 6 7 7 8 8 8 9 11 12 12 13 14 13 11 12 13 13 11 10 8 9 9 7 6 5 5 4 3 3 3 4 6 7 6 5 6 8 9
7 6 6 6 7 7 7 8 7 7 7 6 6 6 6 4 4 4 3 3 2 2 2 3 5 2 1 2 1 1 1 1 3 3 1 2 3 4 1 2 3 4 4 5 6 7 7 7 7 8 8 9 9 9 10 10 11 11 12 12 12 13 14 16 16 12 10 11 10 9 7 7 7 6 5 5 5 4 5 6 7 7 7 5 7
7 7 6 6 6 6 6 6 5 4 6 8 8 7 6 5 5 5 5 5 5 5 5 4 4 6 6 3 2 3 2 1 2 2 2 3 4 3 4 2 1 4 3 4 6 6 7 9 11 11 11 11 11 10 10 10 10 10 12 13 14 14 13 13 16 14 15 12 11 10 9 9 9 8 7 6 6 6 5 6 7 8 10 7 6
6 4 5 7 7 7 6 6 6 5 6 7 7 5 5 7 7 5 5 5 5 5 4 5 5 5 5 5 6 5 4 3 3 1 2 2 3 4 4 4 5 5 2 5 6 5 5 7 10 12 13 13 12 12 12 11 11 11 11 12 13 13 14 14 14 16 18 9 11 10 9 10 10 8 7 6 6 5 6 6 7 8 9 10 8
10 9 9 9 8 8 9 8 7 7 8 7 5 5 7 8 6 6 4 4 3 2 3 3 4 5 4 5 5 6 5 4 4 1 1 1 3 3 4 5 6 6 6 6 7 3 5 8 10 12 12 13 13 13 13 13 12 12 12 12 13 13 13 13 14 14 13 12 10 10 13 12 10 9 8 7 6 7 6 7 7 8 9 10 11
10 9 8 8 7 8 8 8 9 8 7 7 8 8 6 7 7 7 7 8 8 8 7 7 6 6 5 6 5 5 6 5 5 2 4 5 5 5 7 6 6 7 6 7 6 4 5 6 10 12 12 12 13 13 14 14 14 13 13 13 13 14 14 13 13 13 13 13 11 11 13 11 13 10 10 9 9 8 8 8 9 10 9 10 11
6 7 7 7 7 7 7 8 7 7 7 7 8 7 7 5 7 8 7 6 6 6 6 6 6 5 4 4 4 3 4 5 4 4 5 6 6 6 6 5 6 7 6 6 6 7 7 9 9 10 11 10 12 14 14 14 14 15 15 14 14 14 14 14 13 13 14 13 13 13 13 15 11 12 11 11 10 10 9 8 9 9 11 11 12
9 7 8 8 7 8 9 9 9 8 8 8 8 7 6 6 5 5 9 8 7 7 7 7 5 5 5 4 4 2 3 4 5 7 6 5 4 4 4 4 6 5 6 5 5 6 5 8 10 11 12 10 13 16 16 15 15 15 14 14 14 15 15 15 14 14 14 14 14 13 14 14 12 13 13 13 13 12 12 12 11 11 11 11 12
9 8 8 8 8 9 9 9 8 8 9 9 9 9 8 8 5 6 7 8 6 6 7 6 6 5 4 5 2 0 1 5 6 6 4 3 5 4 5 6 5 4 5 4 4 5 5 6 6 7 8 13 15 17 17 16 16 16 15 14 15 15 16 15 16 16 15 14 14 14 13 14 13 14 15 15 14 14 13 12 12 12 11 12 12
9 9 9 9 9 9 9 9 9 8 9 10 9 8 9 9 8 5 6 6 7 8 9 7 6 4 4 5 3 3 5 6 7 5 5 5 5 6 7 6 7 7 7 8 7 6 7 7 7 7 6 9 12 13 16 18 15 15 15 17 17 17 16 16 16 16 16 16 15 15 15 14 15 14 14 16 17 17 16 15 15 12 15 15 11
10 9 9 9 9 8 9 9 8 9 9 9 8 9 9 8 7 6 6 7 8 9 11 6 6 9 7 7 7 7 9 8 10 8 7 5 6 7 5 7 7 8 8 7 8 8 8 8 9 8 8 7 7 11 12 14 13 16 17 18 17 17 17 17 17 17 17 16 15 15 15 15 15 16 16 17 17 17 20 21 18 15 15 15 14
10 9 10 9 9 9 9 9 9 9 8 8 9 10 11 11 8 8 6 7 6 8 10 7 8 6 5 6 5 5 5 9 10 8 8 8 7 7 5 6 7 8 7 7 6 6 7 8 8 8 8 8 7 7 7 7 8 13 18 17 18 18 18 18 17 17 17 17 17 17 16 16 16 16 17 17 18 19 19 18 19 19 18 18 17
10 9 9 9 9 9 8 8 8 7 9 10 10 11 9 10 10 8 6 6 5 6 9 10 6 6 3 3 4 4 2 8 9 8 8 7 8 8 7 7 8 8 7 7 7 6 7 8 9 9 8 8 8 7 7 7 8 12 12 14 15 18 18 18 18 17 17 17 17 17 18 18 17 16 16 17 18 19 20 20 18 20 21 21 20
10 9 9 9 9 9 8 8 9 8 7 8 10 10 9 9 9 9 6 7 6 8 8 10 9 8 7 2 3 2 4 5 9 7 5 7 9 8 7 6 7 7 7 7 7 6 7 7 9 9 8 8 8 7 7 7 9 9 10 11 11 17 18 18 18 19 19 18 18 18 18 18 18 18 18 17 18 18 19 20 21 19 18 22 23
9 9 8 9 9 8 8 8 8 8 7 8 8 8 8 7 9 8 9 6 7 6 8 9 11 9 4 4 5 5 2 5 5 6 8 7 8 9 6 7 8 8 7 5 6 6 6 7 8 8 8 8 8 7 6 6 6 5 6 9 10 13 15 17 18 19 20 19 19 18 18 18 18 18 19 19 19 18 19 19 20 20 21 19 21
8 8 8 8 9 9 8 8 8 8 7 7 6 7 9 9 8 6 9 9 5 7 7 8 7 10 8 5 3 1 4 6 4 6 6 3 6 8 6 7 9 10 8 4 7 7 5 6 7 8 8 8 8 8 7 6 5 5 3 6 13 13 13 15 17 19 20 20 20 20 19 19 19 18 19 19 19 19 19 19 19 20 20 21 21
8 7 8 8 8 8 8 7 7 7 6 7 8 8 7 7 7 8 7 7 7 7 7 6 6 7 8 7 8 5 4 3 3 4 7 2 3 6 6 8 8 8 7 5 9 7 4 5 7 7 7 8 8 7 7 7 7 6 6 10 12 12 13 14 15 16 18 20 20 21 21 21 20 20 19 19 19 19 19 19 20 20 20 21 22
8 8 8 8 8 8 8 8 8 7 7 7 7 6 7 6 7 7 7 7 6 6 5 7 6 5 7 7 6 5 6 5 3 3 3 8 11 3 1 5 6 6 5 9 8 6 6 8 8 7 7 7 7 7 7 6 6 4 3 8 10 12 14 15 15 16 17 19 20 21 21 21 21 21 21 20 20 19 19 19 20 20 20 20 21
7 7 8 8 7 7 7 7 7 7 7 7 7 7 7 7 8 9 7 7 7 5 6 7 6 6 6 5 5 5 6 4 4 5 3 5 6 6 11 7 4 4 6 6 6 7 8 9 8 7 6 7 7 7 7 6 6 6 5 8 10 13 14 15 16 17 18 20 20 20 21 21 21 21 21 21 21 21 20 19 19 20 20 21 21
7 6 7 7 7 7 7 7 7 7 7 7 7 7 7 7 6 6 7 7 6 6 7 6 6 6 6 5 5 5 4 3 3 5 3 3 5 9 7 12 13 6 7 7 7 9 8 8 8 7 7 7 7 7 7 6 6 5 6 9 10 12 14 15 17 18 20 22 22 21 20 20 20 20 21 21 21 21 21 20 20 19 19 20 21
6 7 7 7 7 7 7 7 7 7 7 7 7 7 6 6 6 6 7 7 7 6 7 6 6 7 7 6 6 5 4 3 4 5 4 4 6 6 6 6 7 12 6 8 10 8 8 8 8 7 7 7 7 7 7 6 6 7 8 9 10 13 15 17 19 21 23 25 24 23 22 21 20 20 21 21 21 21 21 21 21 21 20 20 20
6 6 7 7 7 7 7 6 7 7 7 6 6 6 6 5 6 6 6 6 6 6 5 6 6 6 5 6 6 6 6 5 4 5 5 6 5 7 8 7 6 4 7 7 7 8 6 7 8 7 7 6 7 7 7 6 6 12 10 9 10 14 16 20 23 25 26 26 25 25 24 23 21 20 21 21 21 21 21 21 21 22 22 21 20
6 7 6 7 6 7 7 6 6 6 6 6 5 6 6 4 6 5 6 6 6 5 5 5 4 5 6 6 5 6 6 5 6 5 5 5 6 7 6 4 8 10 6 6 5 4 7 8 8 7 7 7 7 7 7 7 6 10 12 7 11 12 16 20 23 25 26 25 25 25 26 25 23 22 22 22 22 22 21 21 21 21 22 22 22
5 5 4 4 5 4 4 4 4 4 5 5 5 5 5 5 5 5 5 5 5 5 4 4 4 4 4 4 5 6 6 6 5 6 6 6 6 6 8 6 5 9 7 4 4 7 3 5 7 7 8 8 7 7 6 8 8 11 14 10 8 12 16 20 23 24 25 25 25 25 25 25 25 24 24 24 24 23 23 22 22 22 21 21 22
5 3 4 3 3 4 4 4 4 4 4 4 5 4 5 4 4 4 4 4 5 5 4 4 5 5 5 4 6 6 6 6 6 5 5 5 5 6 6 11 9 6 7 6 6 4 8 4 5 7 8 7 6 7 9 10 12 17 17 10 8 13 15 20 23 25 26 25 25 25 25 26 26 26 26 26 25 24 24 24 24 23 23 22 21
4 4 4 4 4 4 4 4 4 4 4 4 4 4 4 4 4 4 4 3 5 5 4 4 4 4 4 4 4 5 5 5 5 5 6 5 6 5 6 5 8 12 10 9 7 7 6 7 5 4 6 8 9 9 12 12 10 16 15 9 9 10 12 19 25 26 25 24 24 25 26 26 26 26 26 26 26 26 25 24 24 23 22 21 21
4 4 4 4 3 4 4 4 4 3 4 4 4 4 4 4 4 4 4 4 4 4 4 3 4 3 4 4 4 5 5 4 4 5 5 4 4 5 5 4 5 7 8 10 12 8 7 6 7 3 5 8 10 8 10 8 11 14 11 11 10 10 12 22 24 24 25 25 26 27 27 26 26 26 26 26 26 26 26 26 25 24 23 22 23
4 4 4 4 4 4 4 4 4 4 4 4 4 4 4 4 4 3 3 4 4 4 4 3 4 3 3 3 4 4 4 4 4 4 4 5 5 5 4 5 5 6 6 9 13 10 9 7 3 7 9 8 8 9 7 10 13 15 10 10 10 9 18 24 24 25 26 27 27 27 27 26 25 26 27 27 27 27 27 27 27 26 25 25 25
5 4 4 4 4 4 4 4 4 4 4 4 4 4 4 3 4 4 4 4 4 4 4 3 3 3 3 4 4 3 4 4 4 5 4 5 6 5 5 5 5 4 6 6 11 10 4 10 8 4 9 11 7 10 10 8 9 14 11 12 11 16 22 16 22 24 25 26 25 25 26 26 27 27 27 27 28 29 29 28 28 28 27 27 26
4 5 4 4 4 4 3 4 4 3 3 3 3 3 3 3 4 4 3 4 4 4 4 4 3 3 3 4 4 4 4 3 4 5 5 5 4 5 5 5 4 4 4 6 8 15 13 10 11 6 6 10 10 10 11 8 9 16 13 12 13 17 12 11 14 22 24 25 26 26 26 27 27 27 27 27 27 27 27 28 28 28 28 27 26
4 5 4 4 3 3 3 2 2 1 2 2 3 3 3 3 3 3 3 3 3 3 3 4 3 3 3 4 4 4 3 4 4 5 5 5 5 5 4 5 6 4 5 5 8 13 14 9 7 6 6 11 9 7 11 11 10 11 12 11 11 11 11 11 11 16 23 25 26 26 26 26 26 26 27 27 26 26 26 27 27 27 28 27 27
4 4 4 4 3 3 1 1 1 1 1 1 2 2 2 2 3 2 3 3 3 3 3 3 3 3 3 3 4 4 3 4 4 5 5 5 4 4 5 5 5 5 3 5 7 9 15 15 11 5 5 7 11 7 9 13 11 10 13 12 10 10 10 11 11 11 20 24 24 24 24 25 25 25 25 26 25 24 25 26 26 27 27 27 27
4 4 4 3 2 2 1 1 2 1 1 1 2 2 1 1 1 2 2 2 2 2 3 3 3 3 3 3 4 3 3 4 4 4 4 4 3 4 5 4 5 5 4 4 5 9 12 15 12 10 7 7 10 12 10 9 10 11 11 10 10 10 10 11 11 9 16 22 25 26 27 26 26 26 26 26 26 26 26 26 26 26 27 26 26
5 4 3 2 1 2 1 2 1 1 1 1 1 1 1 0 1 1 2 2 2 2 2 3 3 3 3 3 4 3 4 4 4 5 4 3 4 4 5 5 5 5 4 4 4 7 10 13 14 9 9 9 10 10 9 9 9 10 9 11 10 11 11 10 9 10 15 25 26 25 25 26 28 29 28 27 27 27 27 27 28 28 28 29 28
4 4 4 3 1 2 2 1 1 0 0 0 0 1 1 1 1 2 2 1 2 2 3 3 4 3 3 3 4 4 4 5 5 4 4 4 4 5 6 5 5 5 5 5 6 6 9 12 14 10 8 8 8 10 8 10 10 9 10 11 10 10 11 9 9 11 17 22 21 23 25 26 26 27 28 28 27 27 27 26 27 28 29 29 27
4 4 3 2 3 1 2 1 1 1 0 0 1 1 0 1 1 2 2 2 2 2 3 3 3 3 3 3 3 3 4 5 5 4 3 4 5 6 5 5 5 5 6 6 6 7 8 10 11 14 9 8 11 9 8 9 10 12 11 10 8 8 9 10 9 8 7 8 9 11 15 17 20 24 24 24 26 26 26 27 27 27 27 25 27
4 4 4 2 1 3 1 2 1 1 0 1 1 0 1 2 3 3 3 3 3 3 3 3 3 4 3 3 3 4 4 4 5 3 4 5 5 5 5 6 5 6 7 7 8 9 10 11 12 11 12 10 9 13 10 7 9 9 12 12 11 7 8 9 10 7 7 9 12 18 17 17 21 18 21 26 28 28 28 28 29 28 26 27 27
4 4 4 4 2 3 2 1 1 1 0 1 1 2 3 2 2 3 3 3 3 3 3 4 3 3 4 4 4 4 4 4 3 4 4 6 5 5 5 6 8 8 8 8 9 9 10 11 11 12 11 12 11 10 11 10 8 8 6 9 13 13 11 8 7 10 10 10 10 8 9 12 13 17 22 22 23 27 29 27 27 28 27 25 25
4 3 3 3 2 3 3 3 1 0 1 1 1 2 1 1 1 2 2 3 3 3 3 3 4 4 4 4 4 3 4 8 13 12 11 10 7 5 5 5 8 9 9 8 8 8 10 10 12 11 13 13 11 12 13 11 11 12 10 9 12 11 11 10 9 7 9 11 10 10 9 8 10 9 9 10 12 19 20 24 20 23 25 25 26
3 3 3 2 3 3 3 2 2 2 1 1 3 3 3 2 2 3 3 3 3 3 3 4 4 4 4 4 4 9 12 13 13 14 13 13 13 10 8 8 7 7 7 7 7 7 9 11 10 12 13 14 12 13 14 15 14 12 12 11 12 12 13 14 11 7 8 10 11 11 9 6 9 10 8 10 9 11 11 12 10 15 20 25 26
4 3 3 4 3 3 3 2 2 2 2 2 5 4 3 4 3 3 3 4 4 4 4 4 4 4 4 4 3 5 7 8 8 13 13 14 14 15 16 15 13 10 8 8 8 8 9 9 8 10 11 15 16 13 14 14 11 15 12 11 13 14 12 13 15 9 3 10 11 11 10 7 10 13 11 9 9 10 11 11 20 24 25 25 26
4 4 4 4 4 3 3 2 2 3 2 4 6 5 4 4 4 3 3 3 4 4 5 5 4 4 4 4 3 3 4 5 7 5 9 13 15 15 16 16 15 16 15 11 10 9 9 10 11 11 11 14 14 12 11 13 14 11 12 13 14 12 14 14 11 12 11 8 10 12 15 8 9 10 11 9 9 8 11 19 26 27 27 26 25
4 5 6 5 4 3 4 4 3 3 1 5 6 5 5 5 5 5 3 4 4 5 5 6 6 4 4 5 4 4 4 10 8 6 6 7 11 15 17 17 18 19 19 21 20 15 12 13 14 15 12 13 15 12 12 14 13 15 13 12 12 13 14 13 14 13 8 9 12 12 14 10 9 10 10 8 8 8 9 15 25 26 26 25 25
6 4 4 5 5 4 4 4 3 2 2 5 6 6 6 6 6 5 4 4 5 5 6 6 4 4 4 4 5 5 4 4 5 7 7 8 9 9 10 10 10 14 19 22 23 25 21 16 16 17 16 12 12 14 15 15 16 15 14 14 12 14 12 13 13 12 11 7 10 13 16 10 8 9 10 8 7 8 8 16 24 24 25 26 26
7 7 7 6 5 4 4 3 2 3 2 6 7 7 7 7 6 6 4 4 4 5 6 5 4 4 4 5 5 6 5 5 5 9 9 9 9 10 11 11 11 10 9 9 11 12 13 12 13 15 17 14 14 16 15 15 15 14 13 16 16 14 13 11 11 9 9 6 11 10 14 10 7 10 9 9 8 9 9 13 20 23 25 26 26
4 4 4 5 5 5 4 3 3 4 4 8 8 7 7 6 7 3 3 4 4 3 3 4 4 4 4 5 5 6 5 6 10 16 14 12 11 12 13 11 9 9 10 13 20 19 15 13 12 12 12 15 21 19 17 14 12 10 11 11 9 9 12 12 11 8 9 8 9 9 10 10 8 10 11 8 8 9 8 7 15 22 23 24 24
7 7 7 5 4 5 4 4 4 5 4 6 8 8 7 7 5 1 3 3 4 4 5 5 5 5 4 4 5 6 7 7 12 16 17 17 10 10 10 13 14 14 12 9 15 21 24 27 28 30 31 31 31 30 30 32 24 20 15 14 13 12 12 11 8 6 7 7 6 6 9 12 9 10 9 8 8 9 9 9 8 15 21 21 24
8 7 5 4 4 4 5 6 6 5 5 6 9 8 8 8 7 4 4 4 5 5 4 6 5 5 6 12 10 9 9 9 14 17 17 14 10 11 12 13 13 11 11 10 9 12 22 25 25 25 25 26 28 29 29 29 29 22 13 14 13 11 12 10 12 9 9 8 9 6 8 9 10 9 10 8 9 7 8 7 9 9 15 18 24
6 5 5 5 4 4 4 5 7 6 5 7 10 10 10 9 6 3 4 3 5 5 4 5 5 5 6 7 12 11 10 11 16 15 18 15 10 10 10 12 12 13 11 12 12 13 9 10 12 14 16 18 16 14 15 26 26 21 13 12 10 10 12 11 11 10 10 7 7 6 9 10 11 10 9 9 8 6 4 6 7 9 10 9 11
Wind_Direction
42 38 35 35 42 50 50 53 70 61 128 170 83 79 59 47 55 56 43 39 30 24 23 12 31 68 68 49 345 337 32 8 30 327 309 302 146 211 187 163 260 293 322 336 337 342 340 339 339 329 329 329 336 340 339 338 341 328 267 271 286 300 322 183 212 210 214 222 235 255 293 285 308 331 342 343 338 347 333 334 341 329 327 329 341
55 41 44 38 34 34 33 40 50 38 34 41 33 55 63 62 59 61 58 44 41 24 24 6 347 64 82 37 2 345 24 53 315 264 303 298 174 188 214 178 234 272 287 300 318 331 338 342 334 341 336 332 329 324 333 341 333 345 344 256 286 300 302 264 245 243 214 223 227 231 248 269 256 253 318 316 327 325 330 334 330 329 327 320 313
46 51 49 48 41 34 33 19 38 28 32 40 40 57 63 64 72 74 64 49 56 48 27 326 280 177 145 129 125 307 338 338 345 297 308 324 342 208 226 219 217 256 278 291 303 318 330 331 341 339 339 340 335 329 326 326 336 338 341 346 326 313 315 307 283 283 219 218 219 226 234 246 248 229 230 264 308 306 310 311 317 312 316 319 310
38 41 49 55 51 45 39 39 33 24 24 28 32 39 56 53 47 65 70 93 85 53 357 346 316 313 140 106 33 333 286 345 328 314 313 341 326 319 353 241 265 248 266 302 317 329 329 340 342 345 342 340 337 335 329 325 328 325 333 332 330 331 328 331 322 284 271 223 225 225 226 236 236 229 227 239 255 281 292 297 300 294 288 286 304
50 41 43 55 56 52 45 43 45 44 48 45 40 35 32 31 43 33 29 36 30 6 344 337 343 349 6 13 10 323 288 264 289 323 347 359 336 339 356 351 253 260 287 279 303 321 342 353 356 348 345 345 341 338 332 332 323 322 320 321 322 327 337 328 323 310 281 237 225 226 221 226 233 234 238 241 243 250 278 287 293 295 298 293 283
25 47 54 59 54 53 47 39 30 30 36 49 48 37 38 35 24 33 30 38 38 20 12 5 349 342 344 342 346 325 327 339 313 290 26 341 343 1 6 359 2 32 13 317 303 321 347 3 357 353 346 342 340 336 334 331 330 325 320 315 315 320 327 330 326 335 338 245 229 235 230 230 233 236 240 248 251 250 257 279 293 294 291 292 278
37 37 35 37 38 34 29 24 29 28 29 26 43 43 46 40 23 12 6 46 40 45 27 346 330 333 329 344 331 324 327 321 304 319 286 328 9 351 15 19 26 20 354 348 350 353 5 355 357 352 348 345 341 338 336 332 330 326 322 321 319 318 320 325 324 328 338 346 335 321 299 257 239 240 244 246 242 242 253 268 286 291 291 286 294
55 50 55 51 49 46 40 36 36 38 35 33 31 29 35 46 31 31 26 33 23 17 8 5 355 340 334 331 322 324 327 329 329 347 31 39 16 19 21 24 32 10 358 5 11 17 350 346 345 344 346 347 349 347 342 337 333 329 324 321 319 320 321 321 322 318 321 328 330 325 334 294 246 243 245 245 244 240 247 267 272 269 270 276 277
53 59 60 55 53 51 46 44 38 40 42 37 36 30 28 37 43 40 41 29 21 12 357 352 331 313 301 304 296 315 332 331 344 36 28 36 29 28 21 15 30 21 14 7 6 6 359 349 341 339 338 335 340 346 346 345 342 335 330 323 321 320 320 321 320 319 318 321 323 326 327 327 254 242 245 247 238 239 250 267 267 273 287 291 284
41 44 54 50 52 51 48 42 39 37 37 35 30 19 22 30 39 50 52 33 18 10 352 337 321 311 301 280 279 320 323 336 22 31 45 27 31 37 15 30 41 26 11 359 14 5 355 351 352 355 356 348 345 346 346 346 345 342 338 335 330 326 323 322 322 321 320 320 319 319 318 322 295 242 246 246 237 241 253 261 265 270 268 271 281
38 43 53 48 46 46 49 41 41 41 42 37 31 21 19 10 34 40 53 42 24 9 347 329 325 318 321 297 266 162 360 32 48 37 18 35 41 27 34 31 41 17 5 357 13 7 357 353 358 6 355 349 346 348 346 344 342 339 340 343 342 339 335 332 328 324 323 320 319 317 315 309 307 286 271 258 248 253 262 264 264 273 270 267 268
33 39 51 49 48 44 49 45 43 44 44 41 31 27 19 15 13 42 50 30 24 13 2 350 345 339 329 319 275 120 66 62 42 13 358 40 44 44 43 36 29 10 1 360 6 5 2 359 1 358 355 345 344 344 342 340 335 336 338 341 339 338 338 337 336 333 327 321 317 315 312 308 303 296 287 286 283 269 259 253 264 260 263 276 272
32 35 44 47 48 46 47 45 44 46 45 43 35 30 27 28 17 15 49 38 25 14 4 352 360 359 356 360 40 78 72 59 24 12 16 33 45 46 40 48 31 24 12 10 13 10 6 5 359 352 347 345 340 341 338 337 336 341 339 337 339 339 341 342 341 339 336 331 322 314 308 305 302 300 298 294 286 282 289 283 266 261 255 256 262
34 35 42 43 46 43 42 41 41 43 46 41 36 33 30 29 22 16 18 47 37 18 12 359 21 11 340 334 28 31 66 46 29 6 12 16 34 39 28 54 41 29 13 5 6 6 11 11 355 350 345 343 339 334 335 336 336 336 338 342 345 344 342 341 341 339 338 335 331 326 320 312 304 301 300 298 297 296 291 289 278 257 252 254 244
37 35 40 37 41 43 38 35 38 38 42 39 33 33 27 28 27 30 4 19 36 16 25 33 17 337 309 45 4 1 346 14 4 6 17 23 22 19 17 42 38 29 7 0 5 8 17 13 357 346 340 341 337 336 333 332 329 333 342 350 350 349 348 344 342 341 338 336 335 331 328 324 319 310 303 299 298 297 297 294 291 288 276 259 260
37 37 39 39 38 41 39 38 36 34 42 46 38 34 25 24 24 27 28 27 19 14 17 23 30 9 18 18 304 38 1 358 347 319 14 21 17 4 13 32 30 20 9 4 2 13 14 10 359 342 337 335 332 331 335 331 331 338 342 345 352 358 349 346 346 346 344 341 337 334 329 327 325 321 316 309 302 296 294 294 293 287 276 271 280
39 39 41 40 39 39 40 40 42 35 36 44 44 37 30 25 24 29 30 37 25 16 10 20 25 29 47 17 3 28 33 298 324 291 10 350 6 359 357 23 22 12 3 348 358 9 9 1 353 339 330 332 327 324 323 326 328 331 344 349 359 1 353 349 350 348 346 345 344 340 335 331 327 323 319 316 311 306 301 297 295 294 294 291 286
41 41 42 42 41 38 39 41 41 38 37 40 39 36 31 28 19 31 30 23 43 29 22 7 24 19 25 62 94 93 327 306 19 317 357 307 22 347 340 14 14 359 336 350 358 344 357 357 344 333 326 325 323 323 321 317 319 328 5 347 360 357 350 350 348 346 343 342 340 339 337 334 330 326 321 317 314 311 308 303 299 297 296 294 290
44 42 42 41 42 39 38 39 39 40 35 40 39 36 30 30 20 26 30 29 30 43 28 4 358 18 13 11 17 12 20 17 345 320 335 334 37 338 341 2 354 342 331 352 342 329 331 346 333 323 319 318 321 321 326 324 324 335 14 358 351 347 346 347 347 342 340 338 337 336 332 329 327 326 325 323 318 313 309 306 303 299 296 294 293
48 42 40 39 40 39 37 37 37 32 32 37 40 32 33 29 31 26 24 32 36 45 25 12 43 357 1 6 8 2 2 15 28 45 301 314 323 312 314 346 342 326 338 347 327 321 333 328 319 313 309 309 311 317 321 325 334 340 350 350 343 337 340 343 345 342 338 334 330 329 328 327 325 323 322 320 320 318 314 308 303 302 299 295 293
46 48 42 40 40 40 36 37 37 32 29 29 29 33 35 33 29 27 25 20 27 33 42 16 18 16 9 354 4 7 353 349 11 24 2 320 297 337 326 327 328 307 339 323 320 332 319 307 296 291 294 300 303 305 312 321 337 334 339 341 336 334 336 337 337 340 337 331 324 322 322 323 324 323 321 319 316 314 313 311 308 302 300 298 295
44 43 45 41 42 41 41 36 34 31 32 26 23 24 29 28 30 33 28 31 13 31 39 16 16 6 19 7 12 356 353 359 7 6 329 291 302 321 322 328 326 329 334 322 327 319 309 300 294 284 286 285 292 298 304 315 330 334 326 324 329 334 333 329 329 333 334 328 320 316 315 316 317 319 319 318 316 312 309 307 307 306 302 299 297
51 41 44 41 39 40 42 39 33 30 30 29 20 18 20 32 21 28 33 32 17 17 32 19 19 15 7 12 5 10 358 344 336 352 349 323 323 302 310 301 302 313 319 322 314 303 298 304 301 289 278 284 287 296 300 305 327 331 319 315 328 332 331 329 329 331 329 324 315 311 310 310 311 313 314 313 313 312 309 307 304 303 303 302 298
52 48 40 36 38 37 34 36 35 29 26 23 23 16 10 33 25 28 32 26 19 16 33 21 13 14 5 357 358 360 350 349 339 355 347 320 321 307 313 314 303 267 305 304 292 294 309 311 304 294 283 282 287 287 295 307 315 317 306 316 330 333 332 331 329 329 325 318 312 310 308 307 307 308 308 308 308 308 308 308 307 304 301 300 299
48 51 39 39 39 37 36 35 31 29 24 20 18 19 9 26 39 23 36 31 12 10 29 23 13 19 358 338 360 352 335 331 1 355 342 337 335 317 300 316 303 310 308 316 309 327 312 309 310 310 298 297 300 295 293 304 306 302 307 320 328 331 330 329 327 323 316 312 311 311 310 308 306 306 305 305 304 304 305 305 305 304 302 298 297
72 60 50 53 51 48 48 40 37 32 32 19 15 17 8 16 40 27 27 32 8 4 5 20 6 15 350 348 354 339 327 345 355 4 343 350 335 330 316 313 296 297 304 310 308 328 295 308 315 330 336 323 313 317 323 323 326 319 320 320 328 326 325 323 319 314 312 311 310 311 311 310 308 306 305 303 302 302 302 302 302 301 301 300 297
99 97 69 58 75 87 68 50 42 37 37 31 17 15 5 5 38 28 13 34 2 358 350 16 14 6 348 0 354 335 338 337 360 348 347 340 337 321 329 324 316 297 305 305 296 266 285 301 319 334 311 319 338 343 339 337 329 329 327 325 317 318 320 318 315 312 310 309 309 310 309 308 307 306 304 303 302 300 299 299 298 298 299 300 299
97 87 80 74 51 62 72 59 48 42 35 38 23 14 2 9 33 10 24 21 4 349 337 12 9 1 356 348 359 329 328 331 348 343 342 335 321 316 326 322 316 316 319 308 314 298 297 311 310 269 325 344 343 339 330 326 320 319 322 321 322 320 315 314 311 309 309 310 310 310 308 306 304 303 303 303 301 300 298 296 295 294 293 292 290
106 105 95 92 75 71 66 70 52 46 38 35 23 9 5 3 24 2 35 16 4 338 339 5 352 8 354 344 338 324 315 333 344 338 328 319 314 311 307 309 316 314 315 314 308 311 311 316 314 341 15 343 328 329 323 321 324 326 321 318 315 314 309 312 312 312 313 311 311 310 308 306 304 303 302 301 300 299 297 295 293 291 290 290 289
114 103 95 84 68 69 67 53 50 44 43 31 25 10 5 354 8 12 49 28 354 338 331 12 349 11 339 344 325 327 310 336 325 323 319 315 320 318 319 322 323 300 295 301 299 300 298 298 300 316 331 332 326 323 326 320 318 321 318 320 323 319 320 321 319 315 311 308 307 307 305 303 302 302 302 300 300 298 297 297 296 293 291 290 289
92 86 82 77 64 57 71 52 45 44 36 28 22 11 356 18 7 24 12 16 354 340 324 13 338 359 335 336 325 323 315 329 331 331 331 335 322 321 315 309 304 287 288 289 297 289 301 304 310 5 322 324 337 324 321 321 324 335 333 327 324 321 321 317 314 310 307 306 305 303 303 302 302 301 300 300 300 300 298 297 296 295 293 290 288
97 93 90 81 77 67 54 62 45 32 38 15 17 6 5 18 13 19 350 6 352 336 328 337 333 352 355 340 321 317 318 353 344 332 325 312 311 318 313 310 307 306 298 296 282 287 300 301 304 334 337 329 338 324 322 334 334 334 326 321 319 319 316 310 308 311 312 311 308 305 304 302 301 300 299 300 300 299 299 300 299 298 296 293 289
103 97 89 87 82 83 70 69 83 37 44 23 348 29 11 10 356 359 355 354 353 322 338 331 335 2 352 334 314 314 339 6 330 318 312 310 318 318 329 337 324 320 319 298 292 293 294 293 300 321 353 330 321 337 325 324 329 319 314 318 317 314 313 312 312 312 311 308 307 306 303 302 302 302 302 302 301 299 299 300 301 301 299 296 293
103 102 107 104 98 98 109 90 86 42 51 12 356 31 10 2 350 350 357 352 335 321 334 326 333 336 350 321 316 318 340 353 319 313 307 316 316 335 329 317 306 305 305 307 292 291 292 305 306 331 332 334 312 330 325 319 321 320 315 314 314 311 311 310 306 303 303 306 306 309 311 311 310 310 310 309 306 305 303 302 301 300 299 298 295
104 107 110 115 112 112 114 111 99 41 53 22 3 30 353 10 341 335 327 334 312 313 326 313 322 322 335 326 314 328 338 332 309 305 309 309 332 331 320 321 311 305 300 293 299 294 295 293 302 316 332 336 315 319 319 312 311 308 306 311 313 312 307 303 300 301 313 319 318 316 314 311 311 312 311 309 309 308 308 306 305 303 301 300 299
124 130 125 120 117 133 132 111 86 114 38 37 353 344 353 315 360 310 311 306 308 312 319 318 314 324 320 334 315 327 326 319 306 308 308 328 335 335 327 315 308 309 312 312 301 294 298 299 302 318 325 324 308 306 310 306 306 312 313 311 309 303 304 307 314 322 320 318 318 319 321 322 320 318 316 313 311 311 311 308 306 303 300 297 296
142 147 144 141 149 133 139 126 129 147 140 135 292 300 322 6 346 291 282 306 314 320 316 313 320 325 323 307 308 317 317 310 301 305 309 338 339 335 314 312 320 315 314 314 306 302 296 293 298 305 315 305 299 302 312 315 317 312 308 304 303 305 307 312 317 310 310 312 315 319 319 316 315 315 315 313 310 307 307 309 312 312 309 303 298
143 137 132 146 146 140 134 146 163 183 160 162 248 246 270 336 327 312 328 335 331 323 311 309 311 310 298 291 292 305 305 300 299 300 332 344 334 318 315 315 311 309 306 302 297 294 291 289 296 304 313 317 314 306 315 317 318 316 309 302 297 301 307 307 299 299 302 312 315 310 308 308 309 313 316 317 317 313 311 311 311 312 314 320 322
151 149 148 156 174 150 208 137 180 172 180 246 250 329 47 22 9 354 345 335 320 323 307 306 305 295 291 289 288 287 288 286 294 318 331 323 316 306 305 308 304 305 307 308 310 307 303 301 300 299 305 311 312 309 312 312 303 301 306 310 307 303 296 294 301 302 306 300 298 301 304 312 316 317 319 319 316 315 314 313 313 313 313 314 315
151 148 166 161 198 143 198 155 190 133 199 304 290 78 50 28 16 346 342 317 305 305 302 293 290 292 291 288 281 279 281 285 301 309 307 300 295 289 294 298 306 308 308 309 309 309 307 304 301 306 306 307 309 301 304 308 304 293 287 301 304 309 305 297 296 305 302 296 298 294 297 300 300 306 309 306 307 307 307 308 308 310 311 312 310
144 150 156 153 190 189 181 174 186 245 148 236 111 101 80 348 330 300 290 295 302 296 296 302 300 297 295 290 287 286 289 298 303 304 302 301 300 297 288 291 301 300 297 294 290 296 300 298 300 301 301 303 304 309 311 310 309 306 303 298 292 293 295 298 293 283 289 296 295 293 293 290 293 288 288 291 297 302 300 301 302 304 307 309 310
146 154 169 190 189 203 185 191 173 166 191 205 147 165 187 198 254 271 286 281 285 289 295 298 295 290 292 297 301 307 308 309 310 309 307 305 302 301 300 299 292 286 280 283 287 285 290 289 289 299 300 298 299 303 301 301 300 296 294 294 292 297 298 293 287 283 289 287 297 302 300 302 294 289 288 291 293 296 294 295 290 298 303 306 308
167 163 168 205 198 204 183 178 188 198 185 193 210 215 232 260 265 267 273 284 287 292 284 284 290 298 296 298 308 312 310 309 306 304 308 309 307 304 302 300 300 300 303 299 291 288 285 284 279 288 284 290 296 295 295 293 293 293 287 285 291 297 294 301 303 295 228 299 304 299 295 300 297 294 294 293 295 292 293 293 303 307 306 305 304
174 167 200 207 206 191 170 177 181 211 215 227 224 232 250 259 262 264 266 276 282 282 287 284 284 292 296 303 299 297 300 300 299 307 308 306 307 307 307 305 303 300 296 293 294 293 285 283 286 281 285 288 289 291 288 292 291 285 281 284 289 287 291 290 289 296 309 311 300 303 298 305 292 290 297 298 295 293 304 311 312 311 309 307 305
171 184 205 203 201 188 171 186 203 219 200 248 243 243 254 264 270 276 272 271 270 272 276 281 282 287 298 299 297 295 297 302 305 300 295 293 295 300 302 298 292 286 286 288 287 286 290 288 286 285 277 281 282 278 278 281 281 284 286 283 282 281 282 280 286 288 300 314 304 298 297 311 307 300 295 298 298 301 304 308 307 306 307 307 307
183 189 205 202 194 191 182 183 195 208 209 244 245 247 254 259 267 273 265 266 268 270 271 275 281 286 290 289 293 293 289 289 291 293 290 283 281 278 276 263 258 263 269 274 282 285 282 278 273 273 277 269 268 275 277 278 283 283 284 282 279 279 276 273 279 287 300 308 302 306 296 305 304 299 294 292 295 295 296 299 304 305 306 308 308
183 191 197 192 199 186 182 165 178 230 229 240 245 247 250 256 263 270 268 268 267 267 271 273 273 269 271 276 278 279 283 283 277 289 291 288 283 278 273 272 270 265 261 261 265 250 255 255 257 265 273 271 268 274 274 275 271 272 273 275 277 277 279 283 285 287 291 292 286 284 287 304 296 289 287 291 289 287 288 290 298 306 308 308 308
189 183 203 186 196 185 174 172 193 236 243 244 245 243 246 252 261 262 256 259 259 262 268 268 266 258 255 255 260 268 267 272 284 295 296 294 285 283 283 283 286 289 283 277 282 286 286 285 279 271 275 284 289 290 291 289 285 283 280 281 283 289 294 295 293 295 282 278 263 276 286 290 292 287 289 289 291 292 294 294 306 308 308 308 310
185 191 195 191 185 177 182 184 195 233 240 247 248 244 246 246 246 227 246 245 254 255 259 263 264 264 262 260 259 265 274 266 281 294 297 300 294 300 312 312 300 291 289 296 308 310 308 305 303 302 301 302 302 305 308 310 308 308 309 305 300 302 294 291 282 286 285 295 271 261 280 289 291 290 293 300 306 303 306 304 301 304 305 311 316
189 191 180 185 190 181 189 196 195 207 241 244 243 248 249 240 230 215 227 239 251 252 253 261 259 255 254 271 276 277 277 271 277 290 299 312 319 317 301 296 304 309 310 314 309 302 300 297 297 300 302 303 304 304 305 302 301 302 299 295 300 300 294 291 294 293 294 293 290 295 282 283 299 301 302 302 300 283 287 294 302 305 316 315 310
179 160 164 177 203 210 206 202 204 207 233 249 252 251 246 241 232 216 222 221 241 244 244 250 253 249 252 260 273 277 278 282 291 302 311 316 308 303 314 313 309 307 309 310 301 298 309 321 313 311 304 303 303 300 296 299 302 303 296 290 292 285 285 286 288 296 293 288 295 352 312 304 306 301 310 310 294 288 279 300 314 317 305 305 311